Location: Hannover
(52.3723°N, 9.7339°E)
Time: 09:50:09
(UTC+01:00)

ISS - Pass Details

Date: 14 November 2017
Orbit: 402 x 407 km, 51.6° (Epoch: 22 November)

Event Time Altitude Azimuth Distance (km) Brightness Sun altitude
Exits shadow 05:45:15 31° 214° (SSW) 735 -2.8 -17.4°
Maximum altitude 05:45:24 31° 207° (SSW) 732 -2.7 -17.4°
Drops below altitude 10° 05:48:20 10° 143° (SE) 1,452 -0.4 -17.0°
Sets 05:50:32 0° 133° (SE) 2,309 1.0 -16.6°
